Location: Launois
(49.6535°N, 4.5395°E)
Time: 14:28:43
(UTC+00:00)

Cosmos 676 Rocket - Pass Details

Date: 23 May 2024
Orbit: 752 x 781 km, 74.0° (Epoch: 18 June)

Event Time Altitude Azimuth Distance (km) Brightness Sun altitude
Exits shadow 00:42:52 32° 177° (S) 1,320 4.7 -18.3°
Maximum altitude 00:45:15 62° 108° (ESE) 877 4.2 -18.2°
Drops below altitude 10° 00:50:31 10° 29° (NNE) 2,348 7.7 -17.9°
Sets 00:52:56 0° 26° (NNE) 3,280 8.9 -17.8°
